Location: Unspecified
(34.2230°N, 0.0000°E)
Time: 07:52:12
(UTC+00:00)

Orbcomm 23 - Visible Passes

Search period start: 04 April 2026 00:00
Search period end: 14 April 2026 00:00
Orbit: 763 x 765 km, 45.0° (Epoch: 29 March)

Date Brightness Start Highest point End Pass type
(mag) Time Alt. Az. Time Alt. Az. Time Alt. Az.
4 Apr 8.5 18:42:57 10° WNW 18:48:14 58° SW 18:53:29 10° SE visible
5 Apr 10.4 19:49:24 10° W 19:52:12 14° SW 19:55:00 10° SSW visible
6 Apr 10.2 19:07:56 10° W 19:11:45 20° SW 19:15:32 10° S visible
